Total_Precipitation_Accumulation
0.00 0.00 0.00 0.00 0.00 0.00 0.00 0.00 0.00 0.00 0.00 0.00 0.00 0.00 0.00 0.00 0.00 0.02 0.04 0.04 0.08 0.58 0.93 1.08 1.15 0.62 0.29 0.09 0.02 0.00 0.00 0.01 0.00 0.00 0.00 0.00 0.00 0.00 0.00 0.00 0.00 0.00 0.00 0.00 0.01 0.01 0.02 0.01 0.00
0.00 0.00 0.00 0.00 0.00 0.00 0.00 0.00 0.00 0.00 0.00 0.00 0.00 0.00 0.00 0.00 0.04 0.03 0.07 0.08 0.16 0.20 0.49 1.18 1.31 1.04 0.74 0.40 0.13 0.03 0.01 0.01 0.00 0.00 0.00 0.00 0.01 0.01 0.00 0.01 0.00 0.00 0.00 0.00 0.01 0.02 0.01 0.01 0.00
0.00 0.00 0.00 0.00 0.00 0.00 0.00 0.00 0.00 0.00 0.00 0.00 0.00 0.00 0.02 0.04 0.08 0.03 0.03 0.14 0.29 0.27 0.14 0.51 1.06 1.16 0.83 0.41 0.23 0.12 0.01 0.00 0.00 0.00 0.00 0.00 0.00 0.00 0.00 0.00 0.00 0.00 0.00 0.01 0.01 0.01 0.01 0.00 0.00
0.00 0.00 0.00 0.00 0.00 0.00 0.00 0.00 0.00 0.00 0.00 0.00 0.00 0.03 0.11 0.28 0.49 0.25 0.06 0.11 0.15 0.18 0.14 0.29 0.77 1.12 1.73 1.15 0.60 0.36 0.12 0.01 0.03 0.02 0.00 0.00 0.00 0.00 0.00 0.00 0.00 0.00 0.00 0.01 0.01 0.01 0.00 0.00 0.00
0.00 0.00 0.00 0.00 0.00 0.00 0.00 0.00 0.00 0.00 0.00 0.00 0.00 0.00 0.07 0.21 0.28 0.67 0.41 0.24 0.26 0.30 0.29 0.45 1.00 2.04 3.43 4.21 3.12 1.87 0.79 0.19 0.07 0.03 0.01 0.00 0.00 0.01 0.00 0.00 0.00 0.01 0.00 0.00 0.00 0.00 0.00 0.00 0.00
0.00 0.00 0.00 0.00 0.00 0.00 0.00 0.00 0.00 0.00 0.00 0.00 0.03 0.04 0.03 0.08 0.06 0.45 0.74 0.45 0.49 0.66 0.67 0.84 0.74 1.44 2.98 5.50 5.52 3.72 3.08 1.54 0.30 0.06 0.01 0.00 0.00 0.01 0.01 0.00 0.01 0.01 0.00 0.00 0.00 0.00 0.00 0.00 0.00
0.00 0.00 0.00 0.00 0.00 0.00 0.00 0.00 0.00 0.00 0.00 0.01 0.04 0.11 0.05 0.05 0.06 0.42 0.65 0.50 0.69 1.15 1.08 0.77 0.89 1.22 1.53 2.84 3.92 3.77 2.56 1.87 1.11 0.16 0.01 0.00 0.00 0.02 0.01 0.01 0.00 0.00 0.00 0.00 0.00 0.00 0.00 0.00 0.00
0.00 0.00 0.00 0.00 0.00 0.00 0.00 0.00 0.00 0.01 0.02 0.06 0.03 0.15 0.27 0.28 0.12 0.45 1.08 0.68 0.53 1.06 0.95 0.96 1.24 0.87 0.84 1.63 1.93 1.97 3.21 2.01 0.93 0.30 0.05 0.01 0.00 0.01 0.00 0.01 0.00 0.00 0.00 0.00 0.00 0.00 0.00 0.00 0.00
0.00 0.00 0.00 0.00 0.00 0.00 0.00 0.00 0.00 0.01 0.02 0.06 0.11 0.43 0.37 0.19 0.18 0.58 0.89 1.31 0.95 1.48 1.24 1.44 1.54 1.22 0.79 0.61 0.81 0.73 1.91 2.39 1.80 0.38 0.33 0.07 0.01 0.02 0.01 0.03 0.01 0.01 0.00 0.00 0.00 0.00 0.00 0.00 0.00
0.00 0.00 0.00 0.00 0.00 0.00 0.00 0.00 0.00 0.03 0.11 0.05 0.08 0.03 0.09 0.10 0.19 0.35 0.31 0.50 1.09 2.15 1.66 2.09 2.58 1.98 1.60 1.15 0.66 0.36 0.72 1.64 1.91 0.78 0.29 0.08 0.06 0.09 0.06 0.01 0.00 0.00 0.00 0.00 0.00 0.00 0.00 0.00 0.00
0.00 0.00 0.00 0.00 0.00 0.00 0.00 0.00 0.00 0.03 0.05 0.01 0.00 0.03 0.05 0.06 0.16 0.18 0.14 0.11 0.25 0.76 1.10 1.45 2.66 3.17 2.61 1.52 0.78 0.38 0.64 1.29 1.81 1.22 0.38 0.12 0.15 0.18 0.09 0.01 0.00 0.00 0.00 0.00 0.00 0.00 0.00 0.00 0.00
0.00 0.00 0.00 0.00 0.00 0.00 0.00 0.00 0.03 0.24 0.22 0.04 0.00 0.01 0.02 0.04 0.06 0.11 0.11 0.11 0.19 0.41 0.63 1.52 1.79 1.80 2.13 2.21 0.97 0.53 0.36 0.99 1.34 0.99 0.50 0.23 0.15 0.09 0.18 0.01 0.00 0.00 0.00 0.00 0.00 0.00 0.00 0.00 0.00
0.00 0.00 0.00 0.00 0.00 0.00 0.00 0.01 0.08 0.21 0.06 0.00 0.00 0.01 0.01 0.01 0.02 0.03 0.07 0.12 0.25 0.31 0.50 1.05 0.87 0.65 0.75 1.34 1.45 0.75 0.53 0.62 1.01 0.72 0.40 0.22 0.13 0.10 0.11 0.01 0.00 0.00 0.00 0.00 0.00 0.00 0.00 0.00 0.00
0.00 0.00 0.00 0.00 0.00 0.00 0.00 0.02 0.05 0.40 0.11 0.01 0.00 0.00 0.00 0.01 0.02 0.05 0.09 0.10 0.16 0.31 0.50 0.75 0.48 0.46 0.31 0.49 0.91 1.01 0.51 0.58 0.74 0.46 0.23 0.18 0.11 0.11 0.12 0.05 0.01 0.00 0.00 0.00 0.00 0.00 0.00 0.00 0.00
0.00 0.00 0.00 0.00 0.00 0.00 0.00 0.00 0.00 0.05 0.05 0.03 0.00 0.00 0.00 0.00 0.01 0.02 0.06 0.12 0.19 0.32 0.55 0.76 0.67 0.29 0.33 0.44 0.50 0.84 0.65 0.34 0.41 0.40 0.21 0.18 0.08 0.06 0.08 0.06 0.09 0.08 0.00 0.00 0.00 0.00 0.00 0.00 0.00
0.00 0.00 0.00 0.00 0.00 0.01 0.01 0.01 0.00 0.02 0.01 0.01 0.00 0.00 0.00 0.00 0.00 0.00 0.02 0.08 0.16 0.33 0.37 0.50 0.53 0.38 0.26 0.34 0.44 0.41 0.48 0.41 0.28 0.29 0.17 0.12 0.05 0.05 0.06 0.08 0.08 0.12 0.05 0.00 0.00 0.00 0.00 0.00 0.00
0.00 0.00 0.00 0.00 0.00 0.00 0.00 0.04 0.02 0.03 0.05 0.04 0.00 0.00 0.00 0.00 0.00 0.00 0.00 0.01 0.06 0.21 0.25 0.26 0.24 0.40 0.21 0.26 0.30 0.26 0.23 0.33 0.25 0.20 0.14 0.08 0.05 0.03 0.02 0.07 0.10 0.08 0.06 0.02 0.00 0.00 0.00 0.00 0.00
0.00 0.00 0.00 0.00 0.00 0.00 0.00 0.00 0.01 0.10 0.04 0.03 0.00 0.00 0.00 0.00 0.00 0.00 0.00 0.00 0.02 0.15 0.19 0.23 0.26 0.24 0.19 0.13 0.15 0.14 0.16 0.25 0.25 0.16 0.08 0.08 0.07 0.03 0.02 0.05 0.11 0.17 0.09 0.04 0.02 0.04 0.02 0.01 0.00
0.00 0.00 0.00 0.00 0.00 0.00 0.00 0.00 0.00 0.01 0.02 0.01 0.00 0.00 0.00 0.00 0.00 0.00 0.00 0.00 0.02 0.06 0.11 0.10 0.15 0.28 0.22 0.12 0.09 0.08 0.10 0.11 0.14 0.09 0.04 0.05 0.08 0.07 0.05 0.08 0.10 0.19 0.12 0.06 0.03 0.03 0.03 0.02 0.01
0.00 0.00 0.00 0.00 0.00 0.00 0.00 0.00 0.00 0.00 0.00 0.00 0.00 0.00 0.00 0.00 0.00 0.00 0.00 0.00 0.01 0.02 0.02 0.01 0.01 0.09 0.19 0.11 0.05 0.02 0.04 0.03 0.04 0.03 0.03 0.03 0.06 0.07 0.07 0.07 0.06 0.08 0.11 0.05 0.02 0.03 0.04 0.02 0.02
0.00 0.00 0.00 0.00 0.00 0.00 0.00 0.00 0.00 0.00 0.02 0.06 0.00 0.00 0.00 0.00 0.00 0.00 0.00 0.00 0.00 0.01 0.01 0.01 0.00 0.01 0.04 0.06 0.08 0.03 0.02 0.06 0.04 0.02 0.01 0.02 0.02 0.05 0.10 0.10 0.07 0.09 0.15 0.07 0.06 0.03 0.04 0.20 0.08
0.00 0.00 0.00 0.00 0.00 0.00 0.00 0.00 0.00 0.00 0.02 0.06 0.00 0.00 0.00 0.00 0.00 0.00 0.00 0.00 0.00 0.00 0.00 0.01 0.00 0.00 0.01 0.02 0.04 0.03 0.01 0.03 0.01 0.01 0.00 0.01 0.03 0.06 0.11 0.17 0.17 0.14 0.19 0.15 0.12 0.09 0.08 0.49 0.32
0.00 0.00 0.00 0.00 0.00 0.00 0.00 0.00 0.00 0.00 0.00 0.02 0.01 0.00 0.00 0.00 0.00 0.00 0.00 0.00 0.00 0.00 0.00 0.01 0.01 0.00 0.00 0.01 0.03 0.05 0.04 0.01 0.01 0.01 0.01 0.01 0.07 0.11 0.13 0.21 0.27 0.22 0.21 0.29 0.39 0.32 0.28 0.43 0.30
0.00 0.01 0.00 0.00 0.00 0.00 0.00 0.00 0.00 0.00 0.00 0.00 0.00 0.00 0.00 0.00 0.00 0.00 0.00 0.00 0.00 0.00 0.00 0.01 0.01 0.00 0.00 0.00 0.02 0.02 0.10 0.05 0.01 0.03 0.08 0.13 0.24 0.25 0.26 0.27 0.24 0.29 0.30 0.32 0.38 0.41 0.52 0.52 0.49
0.00 0.01 0.00 0.00 0.00 0.00 0.00 0.00 0.00 0.00 0.00 0.00 0.00 0.00 0.00 0.00 0.00 0.00 0.00 0.00 0.00 0.00 0.00 0.00 0.00 0.00 0.00 0.01 0.01 0.00 0.03 0.09 0.06 0.01 0.05 0.14 0.12 0.26 0.18 0.16 0.16 0.17 0.22 0.24 0.22 0.26 0.21 0.25 0.31
0.00 0.00 0.00 0.01 0.00 0.00 0.00 0.00 0.00 0.00 0.00 0.00 0.00 0.00 0.00 0.00 0.00 0.00 0.00 0.00 0.00 0.00 0.00 0.00 0.00 0.00 0.00 0.00 0.01 0.02 0.01 0.01 0.01 0.02 0.01 0.05 0.04 0.07 0.08 0.04 0.04 0.06 0.11 0.15 0.15 0.13 0.10 0.12 0.16
0.02 0.01 0.00 0.01 0.01 0.01 0.00 0.00 0.00 0.00 0.00 0.00 0.00 0.00 0.00 0.00 0.00 0.01 0.00 0.00 0.01 0.00 0.00 0.00 0.00 0.00 0.00 0.00 0.01 0.01 0.02 0.00 0.02 0.07 0.09 0.07 0.05 0.09 0.11 0.10 0.08 0.07 0.09 0.09 0.10 0.09 0.11 0.11 0.13
0.00 0.00 0.00 0.00 0.02 0.03 0.01 0.00 0.00 0.00 0.00 0.00 0.00 0.00 0.00 0.00 0.00 0.00 0.00 0.01 0.01 0.01 0.03 0.02 0.02 0.01 0.02 0.01 0.02 0.01 0.06 0.09 0.01 0.03 0.08 0.16 0.24 0.23 0.34 0.24 0.17 0.13 0.10 0.10 0.10 0.07 0.07 0.10 0.08
0.00 0.00 0.00 0.00 0.00 0.00 0.01 0.01 0.01 0.00 0.00 0.00 0.00 0.00 0.00 0.00 0.00 0.00 0.00 0.01 0.01 0.02 0.06 0.11 0.19 0.29 0.20 0.14 0.04 0.04 0.12 0.33 0.23 0.08 0.11 0.19 0.36 0.44 0.55 0.40 0.24 0.18 0.19 0.16 0.12 0.12 0.14 0.14 0.15
0.00 0.00 0.00 0.00 0.00 0.00 0.01 0.01 0.00 0.00 0.00 0.00 0.00 0.00 0.00 0.00 0.00 0.00 0.00 0.00 0.00 0.02 0.08 0.16 0.26 0.34 0.25 0.19 0.13 0.32 0.50 0.74 0.60 0.46 0.60 0.42 0.26 0.15 0.16 0.19 0.16 0.13 0.18 0.22 0.18 0.15 0.13 0.15 0.18